Terug naar catalogus

FLOCK 4Q 30

ActiefWetenschapPO
NORAD 58286·PAYLOAD·🇺🇸 United States

Gelanceerd Nov 11, 2023 vanaf Vandenberg Space Force Base

Loading…

Volgende Passages (komende 24 uur)

TLE

VersSource: Space-Track

Epoch: Sep 14, 2026, 05:10 UTC

1 58286U 23174AG  26257.21545297  .00667593  19405-3  15794-2 0  9999
2 58286  97.3785 355.0147 0007119 263.5165  96.5301 15.96744996159796

Volg FLOCK 4Q 30 in realtime met AllMySat

Download on the App Store